Overview Statistics Trail Chart Weather Telemetry Raw packets
 

This is the latest recevied weather packets stored in our database for station/object KJ5FA-9. If no packets are shown the sender has not sent any weather packets the latest 10 day(s).

<< 7 8 9 10 11 12 13 >>
Time Temp. Humidity Pressure Rain* Wind** Luminosity Snow
1788192264 32.22° C 58% 1019.5 hPa 0 mm - - -
1788190764 30.56° C 61% 1019.6 hPa 0 mm - - -
1788186264 27.22° C 68% 1019.9 hPa 0 mm - - -
1788184764 26.67° C 70% 1019.7 hPa 0 mm - - -
1788183264 23.89° C 78% 1019.4 hPa 0 mm - - -
1788181764 22.22° C 86% 1019.3 hPa 0 mm - - -
1788180265 21.11° C 91% 1019.5 hPa 0 mm - - -
1788178764 20.56° C 91% 1019.1 hPa 0 mm - - -
1788175764 20.56° C 90% 1018.6 hPa 0 mm - - -
1788174264 21.11° C 89% 1018.4 hPa 0 mm - - -
1788171264 21.67° C 87% 1018.1 hPa 0 mm - - -
1788169764 21.67° C 86% 1017.8 hPa 0 mm - - -
1788168264 21.67° C 87% 1017.7 hPa 0 mm - - -
1788166764 21.67° C 85% 1017.5 hPa 0 mm - - -
1788165265 22.22° C 83% 1017.6 hPa 0 mm - - -
1788163764 22.78° C 80% 1017.4 hPa 0 mm - - -
1788162273 22.78° C 78% 1017.5 hPa 0 mm - - -
1788160765 23.33° C 76% 1017.5 hPa 0 mm - - -
1788159265 23.89° C 73% 1017.5 hPa 0 mm - - -
1788157764 24.44° C 71% 1017.6 hPa 0 mm - - -
1788156264 25° C 68% 1017.4 hPa 0 mm - - -
1788154764 26.67° C 63% 1017.5 hPa 0 mm - - -
1788153372 26.67° C 57% 1017.3 hPa 0 mm 0 m/s - -
1788153264 26.67° C 58% 1017.5 hPa 0 mm - - -
1788151764 27.22° C 56% 1017.3 hPa 0 mm - - -

* Rain latest hour (hover to see other rain measurements)
** Current wind speed in m/s (hover to see current wind gust speed)